#timestamp,LO_Frequency,Hit,StdDev 
1562353215.8,286047000.8,N
1562353235.7,286047000.0,N
1562353255.5,286046998.2,N
1562353275.3,286046998.5,N
1562353295.2,286046998.1,N
1562353315.0,286046999.6,N
1562353315.9,286046999.6,N
1562353335.8,286047001.2,N
1562353355.6,286047006.8,N
1562353375.4,286047010.5,Y
1562353395.3,286047007.1,P
1562353415.1,286047009.0,P
1562353435.9,286047008.0,N
1562353455.7,286047007.8,N
1562353475.5,286047006.2,N
1562353495.4,286047008.7,Y
1562353515.2,286047000.3,P
1562353535.1,286047003.3,N
1562353536.0,286047003.3,N
1562353555.8,286047002.5,N
1562353575.6,286047004.0,N
1562353595.5,286047004.5,N
1562353615.3,286047007.4,Y
1562353635.2,286047002.9,P
1562353655.9,286047003.0,P
1562353675.7,286047002.5,P
1562353695.6,286047000.7,N
1562353715.4,286046999.7,N
1562353735.2,286047002.7,N
1562353755.1,286047004.2,Y
1562353756.0,286047004.2,P
1562353775.8,286046999.8,N
1562353795.7,286047000.6,N
1562353815.5,286046998.3,N
1562353835.3,286046998.1,N
1562353855.2,286047002.2,N
1562353875.0,286047002.0,N
1562353875.9,286047002.0,N
1562353895.8,286047002.5,N
1562353915.6,286046997.2,N
1562353935.4,286046997.7,N
1562353955.3,286046996.5,N
1562353975.1,286046996.1,N
1562353995.9,286046995.8,N
1562354015.7,286046994.6,N
1562354035.5,286046995.2,N
1562354055.4,286046999.2,N
1562354075.2,286046997.7,N
1562354095.0,286046993.3,N
1562354096.0,286046993.3,N
1562354115.8,286046996.7,N
1562354135.6,286046999.3,N
1562354185.5,286047000.0,E
1562354195.4,286047001.5,N
1562354215.3,286047002.1,P
1562354235.1,286047001.9,P
1562354236.0,286047001.9,Y
1562354255.8,286047002.5,P
1562354275.7,286046999.7,N
1562354295.5,286047002.2,N
1562354315.3,286046999.8,N
1562354335.2,286046998.2,N
1562354355.0,286046999.2,N
1562354355.9,286046999.2,N
1562354375.8,286047001.0,N
1562354395.6,286046999.9,N
1562354415.4,286046999.2,N
1562354435.3,286046996.9,N
1562354455.1,286046998.7,N
1562354475.8,286047000.5,N
1562354495.7,286046999.2,N
1562354515.5,286046998.5,N
1562354535.4,286046998.4,N
1562354555.2,286046997.1,N
1562354575.0,286046999.2,N
1562354575.9,286046999.2,N
1562354595.8,286046999.0,N
1562354615.6,286046996.5,N
1562354635.4,286046996.8,N
1562354655.3,286046997.1,N
1562354675.1,286046997.6,N
1562354695.9,286046996.1,N
1562354715.7,286046995.2,N
1562354735.5,286046995.6,N
1562354755.4,286046993.7,Y
1562354775.2,286046996.2,P
1562354795.0,286046996.0,P
1562354795.9,286046996.0,P
1562354815.8,286046995.1,Y
1562354835.6,286047000.3,P
1562354855.5,286047000.0,N
1562354875.3,286047000.0,N
1562354895.1,286047003.2,N
1562354915.9,286047005.0,N
1562354935.7,286047005.5,N
1562354955.5,286047005.7,N
1562354975.4,286047006.8,N
1562354995.2,286047006.5,N
1562355015.1,286047006.4,N
1562355016.0,286047006.4,N
1562355035.8,286047009.1,N
1562355055.6,286047007.8,N
1562355075.5,286047011.5,Y
1562355095.3,286047009.1,P
1562355115.1,286047005.0,N
1562355135.9,286047008.7,P
1562355155.7,286047008.0,Y
1562355175.6,286047004.4,P
1562355195.4,286047003.3,N
1562355215.2,286046999.8,N
1562355235.1,286047001.7,N
1562355236.0,286047001.7,N
1562355255.8,286047006.0,N
1562355275.7,286047003.2,N
1562355295.5,286047002.7,N
1562355315.3,286047004.0,N
1562355335.2,286047002.9,N
1562355355.0,286047004.3,N
1562355355.9,286047004.3,N
1562355375.7,286047001.4,N
1562355395.6,286047003.5,N
1562355415.4,286047004.7,N
1562355435.3,286046999.7,N
1562355455.1,286047000.1,N
1562355456.0,286047000.1,N
1562355475.8,286047002.1,N
1562355495.7,286047004.3,N
1562355515.5,286047004.0,N
1562355535.3,286047004.2,N
1562355555.2,286047004.8,N
1562355575.0,286047006.5,Y
1562355575.9,286047006.5,P
1562355595.8,286047004.9,N
1562355615.6,286047001.5,N
1562355635.4,286047004.2,N
1562355655.3,286047004.9,N
1562355675.1,286047004.6,N
1562355695.8,286047003.7,N
1562355715.7,286047001.6,N
1562355735.5,286047004.2,N
1562355755.4,286047001.5,N
1562355775.2,286047003.4,N
1562355795.0,286047005.6,Y
1562355795.9,286047005.6,P
1562355815.8,286046999.8,N
1562355835.6,286047002.6,N
1562355855.5,286047000.2,N
1562355875.3,286047001.5,N
1562355895.1,286047004.1,N
1562355915.9,286047002.6,N
1562355935.7,286047005.6,Y
1562355955.5,286047002.4,P
1562355975.4,286047000.1,N
1562355995.2,286047000.4,N
1562356015.1,286047000.7,N
1562356016.0,286047000.7,N
1562356035.8,286047002.4,N
1562356055.6,286047000.5,N
1562356075.5,286046996.5,Y
1562356095.3,286046996.5,P
1562356115.1,286046998.8,N
1562356135.9,286046998.2,N
1562356155.7,286046998.7,N
1562356175.6,286046998.8,N
1562356195.4,286046998.2,N
1562356215.2,286047001.1,N
1562356235.1,286047002.7,N
1562356236.0,286047002.7,N
1562356255.8,286047000.9,N
1562356275.6,286046998.2,N
1562356295.5,286047000.3,N
1562356315.3,286047000.6,N
1562356335.2,286046999.4,N
1562356355.9,286046999.4,N
1562356375.7,286046999.0,N
1562356395.6,286046997.3,N
1562356415.4,286046998.4,N
1562356435.2,286047001.1,N
1562356455.1,286047000.8,N
1562356456.0,286047000.8,N
1562356475.8,286046998.2,N
1562356495.7,286046999.4,N
1562356515.5,286046998.3,N
1562356535.3,286046996.8,N
1562356555.2,286046996.5,N
1562356575.0,286046998.5,N
1562356575.9,286046998.5,N
1562356595.7,286047000.7,N
1562356615.6,286046998.4,N
1562356635.4,286046998.4,N
1562356655.3,286046999.3,N
1562356675.1,286046999.2,N
1562356676.0,286046999.2,N
1562356695.8,286046997.8,N
1562356715.7,286046995.5,N
1562356735.5,286046995.8,N
1562356755.3,286046992.1,Y
1562356775.2,286046994.2,P
1562356795.0,286046995.8,N
1562356795.9,286046995.8,N
